OK,73,43,853,73,2014-10-01T01:40:00,0,28072623,190691
OK,46,68,853,46,2014-10-01T01:45:00,0,28073070,190691
OK,46,68,853,46,2014-10-01T01:50:00,0,28073519,190691
OK,46,68,853,46,2014-10-01T01:55:00,0,28073836,190691
OK,46,68,853,46,2014-10-01T02:00:00,0,28074285,190691
OK,46,68,853,46,2014-10-01T02:05:00,0,28074727,190691
OK,40,79,853,40,2014-10-01T02:10:00,1,28075174,190691
OK,40,79,853,40,2014-10-01T02:15:00,1,28075623,190691
OK,40,79,853,40,2014-10-01T02:20:00,0,28076012,190691
OK,40,79,853,40,2014-10-01T02:25:00,0,28076455,190691
OK,47,67,853,47,2014-10-01T02:30:00,1,28076904,190691
OK,47,67,853,47,2014-10-01T02:35:00,1,28077353,190691
OK,47,67,853,47,2014-10-01T02:40:00,0,28077757,190691
OK,47,67,853,47,2014-10-01T02:45:00,0,28078205,190691
OK,44,72,853,44,2014-10-01T02:50:00,3,28078650,190691
OK,41,77,853,41,2014-10-01T02:55:00,2,28079099,190691
OK,37,85,853,37,2014-10-01T03:00:00,0,28079541,190691
OK,37,85,853,37,2014-10-01T03:05:00,0,28079990,190691
OK,43,73,853,43,2014-10-01T03:10:00,1,28080326,190691
OK,43,73,853,43,2014-10-01T03:15:00,1,28080773,190691
OK,43,73,853,43,2014-10-01T03:20:00,0,28081222,190691
OK,37,85,853,37,2014-10-01T03:25:00,0,28081669,190691
OK,50,63,853,50,2014-10-01T03:30:00,4,28082118,190691
OK,50,63,853,50,2014-10-01T03:35:00,4,28082554,190691
OK,51,62,853,51,2014-10-01T03:40:00,3,28082983,190691
OK,52,60,853,52,2014-10-01T03:45:00,8,28083432,190691
OK,53,59,853,53,2014-10-01T03:50:00,6,28083881,190691
OK,52,60,853,52,2014-10-01T03:55:00,5,28084324,190691
OK,44,72,853,44,2014-10-01T04:00:00,6,28084751,190691
OK,42,75,853,42,2014-10-01T04:05:00,7,28085196,190691
OK,42,75,853,42,2014-10-01T04:10:00,9,28085642,190691
OK,52,60,853,52,2014-10-01T04:15:00,6,28086090,190691
OK,50,63,853,50,2014-10-01T04:20:00,12,28086533,190691
OK,53,59,853,53,2014-10-01T04:25:00,19,28086981,190691
OK,53,59,853,53,2014-10-01T04:30:00,14,28087426,190691
OK,51,62,853,51,2014-10-01T04:35:00,9,28087875,190691
OK,55,57,853,55,2014-10-01T04:40:00,21,28088302,190691
OK,55,57,853,55,2014-10-01T04:45:00,20,28088748,190691
OK,57,55,853,57,2014-10-01T04:50:00,19,28089179,190691
OK,62,51,853,62,2014-10-01T04:55:00,21,28089627,190691
OK,70,45,853,70,2014-10-01T05:05:00,26,28090076,190691
OK,67,47,853,67,2014-10-01T05:10:00,19,28090869,190691
OK,67,47,853,67,2014-10-01T05:15:00,28,28091318,190691
OK,67,47,853,67,2014-10-01T05:20:00,29,28091737,190691
OK,71,44,853,71,2014-10-01T05:25:00,32,28092184,190691
OK,70,45,853,70,2014-10-01T05:30:00,39,28092629,190691
OK,72,44,853,72,2014-10-01T05:35:00,34,28093069,190691
OK,79,40,853,79,2014-10-01T05:40:00,36,28093500,190691
OK,127,24,853,127,2014-10-01T05:45:00,58,28093949,190691
OK,137,23,853,137,2014-10-01T05:50:00,47,28094363,190691
OK,112,28,853,112,2014-10-01T05:55:00,36,28094805,190691
OK,84,37,853,84,2014-10-01T06:00:00,40,28095252,190691
OK,68,46,853,68,2014-10-01T06:05:00,36,28095701,190691
OK,82,38,853,82,2014-10-01T06:10:00,34,28096115,190691
OK,93,34,853,93,2014-10-01T06:15:00,35,28096563,190691
OK,90,35,853,90,2014-10-01T06:20:00,29,28096999,190691
OK,68,46,853,68,2014-10-01T06:25:00,25,28097446,190691
OK,66,48,853,66,2014-10-01T06:30:00,36,28097895,190691
OK,68,46,853,68,2014-10-01T06:35:00,22,28098334,190691
OK,72,44,853,72,2014-10-01T06:40:00,26,28098777,190691
OK,74,42,853,74,2014-10-01T06:45:00,24,28099224,190691
OK,75,42,853,75,2014-10-01T06:50:00,19,28099569,190691
OK,69,45,853,69,2014-10-01T06:55:00,14,28100016,190691
OK,68,46,853,68,2014-10-01T07:00:00,10,28100325,190691
OK,65,48,853,65,2014-10-01T07:05:00,17,28100772,190691
OK,64,49,853,64,2014-10-01T07:10:00,16,28101144,190691
OK,47,67,853,47,2014-10-01T07:15:00,15,28101592,190691
OK,52,60,853,52,2014-10-01T07:20:00,18,28102029,190691
OK,55,57,853,55,2014-10-01T07:25:00,15,28102477,190691
OK,53,59,853,53,2014-10-01T07:30:00,14,28102909,190691
OK,53,59,853,53,2014-10-01T07:35:00,17,28103351,190691
OK,54,58,853,54,2014-10-01T07:40:00,14,28103797,190691
OK,55,57,853,55,2014-10-01T07:45:00,8,28104241,190691
OK,65,48,853,65,2014-10-01T07:50:00,8,28104683,190691
OK,58,54,853,58,2014-10-01T07:55:00,20,28105127,190691
OK,56,56,853,56,2014-10-01T08:00:00,19,28105568,190691
OK,53,59,853,53,2014-10-01T08:05:00,16,28106016,190691
OK,50,63,853,50,2014-10-01T08:10:00,12,28106453,190691
OK,57,55,853,57,2014-10-01T08:15:00,6,28106861,190691
OK,61,51,853,61,2014-10-01T08:20:00,13,28107291,190691
OK,51,62,853,51,2014-10-01T08:25:00,11,28107740,190691
OK,51,62,853,51,2014-10-01T08:30:00,13,28108179,190691
OK,57,55,853,57,2014-10-01T08:35:00,16,28108628,190691
OK,57,55,853,57,2014-10-01T08:40:00,11,28109057,190691
OK,52,60,853,52,2014-10-01T08:45:00,14,28109505,190691
OK,51,62,853,51,2014-10-01T08:50:00,14,28109849,190691
OK,50,63,853,50,2014-10-01T08:55:00,12,28110297,190691
OK,52,60,853,52,2014-10-01T09:00:00,16,28110720,190691
OK,53,59,853,53,2014-10-01T09:05:00,16,28111169,190691
OK,59,53,853,59,2014-10-01T09:10:00,13,28111598,190691
OK,61,51,853,61,2014-10-01T09:15:00,14,28112047,190691
OK,52,60,853,52,2014-10-01T09:20:00,8,28112389,190691
OK,54,58,853,54,2014-10-01T09:25:00,10,28112837,190691
OK,51,62,853,51,2014-10-01T09:30:00,12,28113262,190691
OK,51,62,853,51,2014-10-01T09:35:00,11,28113710,190691
OK,59,53,853,59,2014-10-01T09:40:00,5,28114142,190691
OK,55,57,853,55,2014-10-01T09:45:00,10,28114591,190691
OK,56,56,853,56,2014-10-01T09:50:00,11,28114946,190691
OK,52,60,853,52,2014-10-01T09:55:00,12,28115394,190691
OK,55,57,853,55,2014-10-01T10:00:00,17,28115807,190691
OK,53,59,853,53,2014-10-01T10:05:00,16,28116255,190691
OK,53,59,853,53,2014-10-01T10:10:00,12,28116664,190691
OK,55,57,853,55,2014-10-01T10:15:00,7,28117112,190691
OK,58,54,853,58,2014-10-01T10:20:00,7,28117537,190691
OK,56,56,853,56,2014-10-01T10:25:00,12,28117986,190691
OK,52,60,853,52,2014-10-01T10:30:00,20,28118431,190691
OK,51,62,853,51,2014-10-01T10:35:00,16,28118878,190691
OK,52,60,853,52,2014-10-01T10:40:00,11,28119322,190691
OK,52,60,853,52,2014-10-01T10:45:00,13,28119770,190691
OK,54,58,853,54,2014-10-01T10:50:00,12,28120218,190691
OK,51,62,853,51,2014-10-01T10:55:00,12,28120667,190691
OK,52,60,853,52,2014-10-01T11:00:00,7,28121051,190691
OK,56,56,853,56,2014-10-01T11:05:00,8,28121499,190691
OK,58,54,853,58,2014-10-01T11:10:00,21,28121938,190691
OK,53,59,853,53,2014-10-01T11:15:00,18,28122386,190691
OK,58,54,853,58,2014-10-01T11:20:00,9,28122828,190691
OK,90,35,853,90,2014-10-01T11:25:00,3,28123276,190691
OK,52,60,853,52,2014-10-01T11:30:00,5,28123709,190691
OK,51,62,853,51,2014-10-01T11:35:00,5,28124157,190691
OK,54,58,853,54,2014-10-01T11:40:00,7,28124561,190691
OK,53,59,853,53,2014-10-01T11:45:00,8,28125008,190691
OK,52,60,853,52,2014-10-01T11:50:00,6,28125437,190691
OK,50,63,853,50,2014-10-01T11:55:00,17,28125886,190691
OK,52,60,853,52,2014-10-01T12:00:00,19,28126239,190691
OK,54,58,853,54,2014-10-01T12:05:00,17,28126687,190691
OK,49,64,853,49,2014-10-01T12:10:00,15,28127136,190691
OK,49,64,853,49,2014-10-01T12:15:00,11,28127585,190691
OK,51,62,853,51,2014-10-01T12:20:00,13,28128014,190691
OK,49,64,853,49,2014-10-01T12:25:00,13,28128462,190691
OK,52,60,853,52,2014-10-01T12:30:00,14,28128897,190691
OK,51,62,853,51,2014-10-01T12:35:00,10,28129346,190691
OK,53,59,853,53,2014-10-01T12:40:00,10,28129781,190691
OK,57,55,853,57,2014-10-01T12:45:00,11,28130229,190691
OK,55,57,853,55,2014-10-01T12:50:00,11,28130658,190691
OK,58,54,853,58,2014-10-01T12:55:00,11,28131106,190691
OK,50,63,853,50,2014-10-01T13:00:00,7,28131544,190691
OK,56,56,853,56,2014-10-01T13:05:00,12,28131992,190691
OK,54,58,853,54,2014-10-01T13:10:00,13,28132431,190691
OK,54,58,853,54,2014-10-01T13:15:00,15,28132877,190691
OK,57,55,853,57,2014-10-01T13:20:00,11,28133315,190691
OK,56,56,853,56,2014-10-01T13:25:00,10,28133764,190691
OK,52,60,853,52,2014-10-01T13:30:00,10,28134203,190691
OK,51,62,853,51,2014-10-01T13:35:00,7,28134652,190691
OK,59,53,853,59,2014-10-01T13:40:00,7,28135072,190691
OK,49,64,853,49,2014-10-01T13:45:00,10,28135520,190691
OK,49,64,853,49,2014-10-01T13:50:00,11,28135957,190691
OK,60,52,853,60,2014-10-01T13:55:00,11,28136406,190691
OK,77,41,853,77,2014-10-01T14:00:00,13,28136846,190691
OK,81,39,853,81,2014-10-01T14:05:00,9,28137295,190691
OK,83,38,853,83,2014-10-01T14:10:00,16,28137729,190691
OK,83,38,853,83,2014-10-01T14:15:00,12,28138178,190691
OK,74,42,853,74,2014-10-01T14:20:00,9,28138607,190691
OK,73,43,853,73,2014-10-01T14:25:00,10,28139055,190691
OK,78,40,853,78,2014-10-01T14:30:00,10,28139467,190691
OK,73,43,853,73,2014-10-01T14:35:00,17,28139915,190691
OK,71,44,853,71,2014-10-01T14:40:00,18,28140358,190691
OK,72,44,853,72,2014-10-01T14:45:00,16,28140806,190691
OK,71,44,853,71,2014-10-01T14:50:00,13,28141233,190691
OK,67,47,853,67,2014-10-01T14:55:00,12,28141681,190691
OK,74,42,853,74,2014-10-01T15:00:00,13,28142110,190691
OK,67,47,853,67,2014-10-01T15:05:00,16,28142558,190691
OK,67,47,853,67,2014-10-01T15:10:00,20,28142986,190691
OK,72,44,853,72,2014-10-01T15:15:00,10,28143434,190691
OK,67,47,853,67,2014-10-01T15:20:00,5,28143882,190691
OK,69,45,853,69,2014-10-01T15:25:00,9,28144331,190691
OK,71,44,853,71,2014-10-01T15:30:00,10,28144754,190691
OK,70,45,853,70,2014-10-01T15:35:00,15,28145166,190691
OK,69,45,853,69,2014-10-01T15:40:00,21,28145615,190691
OK,72,44,853,72,2014-10-01T15:45:00,13,28146064,190691
OK,70,45,853,70,2014-10-01T15:50:00,14,28146513,190691
OK,73,43,853,73,2014-10-01T15:55:00,10,28146924,190691
OK,77,41,853,77,2014-10-01T16:00:00,6,28147365,190691
OK,59,53,853,59,2014-10-01T16:05:00,12,28147814,190691
OK,60,52,853,60,2014-10-01T16:10:00,13,28148216,190691
OK,64,49,853,64,2014-10-01T16:15:00,7,28148664,190691
OK,64,49,853,64,2014-10-01T16:20:00,12,28149104,190691
OK,64,49,853,64,2014-10-01T16:25:00,13,28149552,190691
OK,62,51,853,62,2014-10-01T16:30:00,7,28149979,190691
OK,56,56,853,56,2014-10-01T16:35:00,6,28150427,190691
OK,47,67,853,47,2014-10-01T16:40:00,11,28150846,190691
OK,47,67,853,47,2014-10-01T16:45:00,11,28151294,190691
OK,55,57,853,55,2014-10-01T16:50:00,9,28151743,190691
OK,46,68,853,46,2014-10-01T17:00:00,5,28152192,190691
OK,43,73,853,43,2014-10-01T17:05:00,3,28152638,190691
OK,42,75,853,42,2014-10-01T17:10:00,5,28153085,190691
OK,50,63,853,50,2014-10-01T17:15:00,8,28153534,190691
OK,49,64,853,49,2014-10-01T17:20:00,8,28153946,190691
OK,47,67,853,47,2014-10-01T17:25:00,12,28154393,190691
OK,47,67,853,47,2014-10-01T17:30:00,16,28154835,190691
OK,47,67,853,47,2014-10-01T17:35:00,9,28155283,190691
OK,50,63,853,50,2014-10-01T17:40:00,4,28155703,190691
OK,53,59,853,53,2014-10-01T17:45:00,3,28156150,190691
OK,48,66,853,48,2014-10-01T17:50:00,5,28156599,190691
OK,48,66,853,48,2014-10-01T17:55:00,5,28157037,190691
OK,52,60,853,52,2014-10-01T18:00:00,2,28157468,190691
OK,71,44,853,71,2014-10-01T18:05:00,4,28157915,190691
OK,49,64,853,49,2014-10-01T18:10:00,3,28158359,190691
OK,43,73,853,43,2014-10-01T18:15:00,1,28158805,190691
OK,61,51,853,61,2014-10-01T18:20:00,4,28159251,190691
OK,61,51,853,61,2014-10-01T18:25:00,4,28159587,190691
OK,59,53,853,59,2014-10-01T18:30:00,2,28160035,190691
OK,59,53,853,59,2014-10-01T18:35:00,0,28160484,190691
OK,47,67,853,47,2014-10-01T18:40:00,1,28160923,190691
OK,54,58,853,54,2014-10-01T18:45:00,3,28161371,190691
OK,69,45,853,69,2014-10-01T18:50:00,5,28161788,190691
OK,56,56,853,56,2014-10-01T18:55:00,4,28162237,190691
OK,49,64,853,49,2014-10-01T19:00:00,4,28162637,190691
OK,52,60,853,52,2014-10-01T19:05:00,6,28163070,190691
OK,63,50,853,63,2014-10-01T19:10:00,4,28163518,190691
OK,57,55,853,57,2014-10-01T19:15:00,4,28163967,190691
OK,59,53,853,59,2014-10-01T19:20:00,3,28164399,190691
OK,59,53,853,59,2014-10-01T19:25:00,3,28164847,190691
OK,52,60,853,52,2014-10-01T19:30:00,5,28165273,190691
OK,51,62,853,51,2014-10-01T19:35:00,4,28165720,190691
OK,48,66,853,48,2014-10-01T19:40:00,5,28166161,190691
OK,45,70,853,45,2014-10-01T19:45:00,3,28166523,190691
OK,54,58,853,54,2014-10-01T19:50:00,2,28166972,190691
OK,46,68,853,46,2014-10-01T19:55:00,1,28167401,190691
OK,60,52,853,60,2014-10-01T20:00:00,1,28167835,190691
OK,125,25,853,125,2014-10-01T20:05:00,3,28168283,190691
OK,45,70,853,45,2014-10-01T20:10:00,6,28168728,190691
OK,60,52,853,60,2014-10-01T20:15:00,2,28169177,190691
OK,52,60,853,52,2014-10-01T20:20:00,4,28169625,190691
OK,45,70,853,45,2014-10-01T20:25:00,4,28170051,190691
OK,53,59,853,53,2014-10-01T20:30:00,2,28170496,190691
OK,65,48,853,65,2014-10-01T20:35:00,0,28170944,190691
OK,65,48,853,65,2014-10-01T20:40:00,0,28171381,190691
OK,49,64,853,49,2014-10-01T20:45:00,2,28171827,190691
OK,35,90,853,35,2014-10-01T20:50:00,1,28172275,190691
OK,35,90,853,35,2014-10-01T20:55:00,0,28172721,190691
OK,43,73,853,43,2014-10-01T21:00:00,1,28173167,190691
OK,43,73,853,43,2014-10-01T21:05:00,1,28173616,190691
OK,55,57,853,55,2014-10-01T21:10:00,1,28174057,190691
OK,55,57,853,55,2014-10-01T21:15:00,3,28174506,190691
OK,148,21,853,148,2014-10-01T21:20:00,1,28174932,190691
OK,48,66,853,48,2014-10-01T21:25:00,1,28175328,190691
OK,48,66,853,48,2014-10-01T21:30:00,0,28175777,190691
OK,71,44,853,71,2014-10-01T21:35:00,1,28176226,190691
OK,71,44,853,71,2014-10-01T21:40:00,0,28176675,190691
OK,41,77,853,41,2014-10-01T21:45:00,1,28177036,190691
OK,41,77,853,41,2014-10-01T21:50:00,0,28177471,190691
OK,41,77,853,41,2014-10-01T21:55:00,0,28177917,190691
OK,41,77,853,41,2014-10-01T22:00:00,0,28178366,190691
OK,41,77,853,41,2014-10-01T22:05:00,0,28178813,190691
OK,41,77,853,41,2014-10-01T22:10:00,0,28179248,190691
OK,41,77,853,41,2014-10-01T22:15:00,0,28179690,190691
OK,80,39,853,80,2014-10-01T22:20:00,1,28180137,190691
OK,80,39,853,80,2014-10-01T22:25:00,0,28180535,190691
OK,80,39,853,80,2014-10-01T22:30:00,0,28180984,190691
OK,64,49,853,64,2014-10-01T22:35:00,1,28181408,190691
OK,64,49,853,64,2014-10-01T22:40:00,1,28181856,190691
OK,40,79,853,40,2014-10-01T22:45:00,3,28182303,190691
OK,40,79,853,40,2014-10-01T22:50:00,3,28182752,190691
OK,40,79,853,40,2014-10-01T22:55:00,1,28183169,190691
OK,40,79,853,40,2014-10-01T23:00:00,0,28183602,190691
OK,40,79,853,40,2014-10-01T23:05:00,0,28184047,190691
OK,40,79,853,40,2014-10-01T23:10:00,0,28184496,190691
OK,40,79,853,40,2014-10-01T23:15:00,0,28184931,190691
OK,40,79,853,40,2014-10-01T23:20:00,0,28185379,190691
OK,40,79,853,40,2014-10-01T23:25:00,0,28185810,190691
OK,40,79,853,40,2014-10-01T23:30:00,0,28186202,190691
OK,40,79,853,40,2014-10-01T23:40:00,0,28187049,190691
OK,40,79,853,40,2014-10-01T23:55:00,0,28188381,190691
OK,40,79,853,40,2014-10-02T00:00:00,0,28188817,190691
OK,40,79,853,40,2014-10-02T00:05:00,0,28189266,190691
OK,40,79,853,40,2014-10-02T00:10:00,0,28189689,190691
OK,40,79,853,40,2014-10-02T00:15:00,0,28190137,190691
OK,40,79,853,40,2014-10-02T00:20:00,0,28190491,190691
OK,40,79,853,40,2014-10-02T00:25:00,0,28190939,190691
OK,40,79,853,40,2014-10-02T00:30:00,0,28191388,190691
OK,40,79,853,40,2014-10-02T00:35:00,0,28191695,190691
OK,40,79,853,40,2014-10-02T00:40:00,0,28192143,190691
OK,40,79,853,40,2014-10-02T00:45:00,0,28192576,190691
OK,40,79,853,40,2014-10-02T00:50:00,0,28193020,190691
OK,40,79,853,40,2014-10-02T00:55:00,0,28193387,190691
OK,40,79,853,40,2014-10-02T01:05:00,0,28194285,190691
OK,40,79,853,40,2014-10-02T01:15:00,0,28194734,190691
OK,40,79,853,40,2014-10-02T01:20:00,0,28195419,190691
OK,40,79,853,40,2014-10-02T01:30:00,0,28195868,190691
OK,40,79,853,40,2014-10-02T01:35:00,0,28196601,190691
OK,40,79,853,40,2014-10-02T01:40:00,0,28197025,190691
OK,40,79,853,40,2014-10-02T01:45:00,0,28197473,190691
OK,40,79,853,40,2014-10-02T01:50:00,0,28197921,190691
OK,40,79,853,40,2014-10-02T01:55:00,0,28198369,190691
OK,40,79,853,40,2014-10-02T02:00:00,0,28198818,190691
OK,40,79,853,40,2014-10-02T02:05:00,0,28199197,190691
OK,40,79,853,40,2014-10-02T02:10:00,0,28199632,190691
OK,49,64,853,49,2014-10-02T02:15:00,0,28200074,190691
OK,49,64,853,49,2014-10-02T02:20:00,0,28200517,190691
OK,49,64,853,49,2014-10-02T02:25:00,0,28200966,190691
OK,49,64,853,49,2014-10-02T02:30:00,0,28201397,190691
OK,49,64,853,49,2014-10-02T02:45:00,0,28202295,190691
OK,49,64,853,49,2014-10-02T02:50:00,0,28202737,190691
OK,49,64,853,49,2014-10-02T02:55:00,0,28203185,190691
OK,45,70,853,45,2014-10-02T03:00:00,2,28203620,190691
OK,41,77,853,41,2014-10-02T03:10:00,0,28204069,190691
OK,38,83,853,38,2014-10-02T03:25:00,2,28204518,190691
OK,38,83,853,38,2014-10-02T03:30:00,0,28204967,190691
OK,41,77,853,41,2014-10-02T03:35:00,2,28205396,190691
OK,41,77,853,41,2014-10-02T03:40:00,1,28205842,190691
OK,79,40,853,79,2014-10-02T03:45:00,2,28206225,190691
OK,47,67,853,47,2014-10-02T03:55:00,0,28207123,190691
OK,43,73,853,43,2014-10-02T04:00:00,5,28207544,190691
OK,58,54,853,58,2014-10-02T04:05:00,1,28207991,190691
OK,38,83,853,38,2014-10-02T04:10:00,1,28208420,190691
OK,38,83,853,38,2014-10-02T04:15:00,0,28208867,190691
OK,47,67,853,47,2014-10-02T04:20:00,3,28209305,190691
OK,51,62,853,51,2014-10-02T04:25:00,0,28209754,190691
OK,46,68,853,46,2014-10-02T04:30:00,9,28210177,190691
OK,46,68,853,46,2014-10-02T04:35:00,4,28210626,190691
OK,47,67,853,47,2014-10-02T04:40:00,11,28211052,190691
OK,51,62,853,51,2014-10-02T04:45:00,3,28211495,190691
OK,51,62,853,51,2014-10-02T04:50:00,0,28211873,190691
OK,57,55,853,57,2014-10-02T04:55:00,16,28212322,190691
OK,58,54,853,58,2014-10-02T05:00:00,3,28212751,190691
OK,78,40,853,78,2014-10-02T05:05:00,13,28213200,190691
OK,102,31,853,102,2014-10-02T05:10:00,2,28213638,190691
OK,73,43,853,73,2014-10-02T05:15:00,16,28214087,190691
OK,67,47,853,67,2014-10-02T05:20:00,5,28214502,190691
OK,64,49,853,64,2014-10-02T05:25:00,23,28214949,190691
OK,68,46,853,68,2014-10-02T05:30:00,4,28215366,190691
OK,86,36,853,86,2014-10-02T05:40:00,37,28215814,190691
OK,111,28,853,111,2014-10-02T05:45:00,10,28216593,190691
OK,122,25,853,122,2014-10-02T05:50:00,0,28217040,190691
OK,103,30,853,103,2014-10-02T05:55:00,44,28217489,190691
OK,68,46,853,68,2014-10-02T06:00:00,34,28217928,190691
OK,64,49,853,64,2014-10-02T06:05:00,22,28218377,190691
OK,64,49,853,64,2014-10-02T06:10:00,5,28218797,190691
OK,78,40,853,78,2014-10-02T06:15:00,36,28219246,190691
OK,69,45,853,69,2014-10-02T06:20:00,28,28219620,190691
OK,65,48,853,65,2014-10-02T06:25:00,27,28220068,190691
OK,66,48,853,66,2014-10-02T06:30:00,25,28220503,190691
OK,71,44,853,71,2014-10-02T06:35:00,20,28220951,190691
OK,65,48,853,65,2014-10-02T06:40:00,21,28221339,190691
OK,64,49,853,64,2014-10-02T06:45:00,24,28221618,190691
OK,75,42,853,75,2014-10-02T07:00:00,6,28222212,190691
OK,63,50,853,63,2014-10-02T07:05:00,13,28222661,190691
OK,57,55,853,57,2014-10-02T07:10:00,19,28223093,190691
OK,46,68,853,46,2014-10-02T07:15:00,8,28223528,190691
OK,45,70,853,45,2014-10-02T07:20:00,0,28223975,190691
OK,57,55,853,57,2014-10-02T07:25:00,10,28224330,190691
OK,67,47,853,67,2014-10-02T07:30:00,3,28224779,190691
OK,50,63,853,50,2014-10-02T07:35:00,11,28225228,190691
OK,56,56,853,56,2014-10-02T07:40:00,7,28225552,190691
OK,52,60,853,52,2014-10-02T07:50:00,11,28226440,190691
OK,51,62,853,51,2014-10-02T07:55:00,8,28226889,190691
OK,43,73,853,43,2014-10-02T08:00:00,3,28227305,190691
OK,51,62,853,51,2014-10-02T08:05:00,9,28227753,190691
OK,61,51,853,61,2014-10-02T08:10:00,3,28228113,190691
OK,51,62,853,51,2014-10-02T08:15:00,14,28228561,190691
OK,81,39,853,81,2014-10-02T08:20:00,4,28228972,190691
OK,49,64,853,49,2014-10-02T08:25:00,9,28229420,190691
OK,48,66,853,48,2014-10-02T08:30:00,2,28229771,190691
OK,57,55,853,57,2014-10-02T08:35:00,7,28230219,190691
OK,46,68,853,46,2014-10-02T08:40:00,0,28230590,190691
OK,46,68,853,46,2014-10-02T08:45:00,0,28231034,190691
OK,47,67,853,47,2014-10-02T08:50:00,14,28231457,190691
OK,50,63,853,50,2014-10-02T08:55:00,7,28231906,190691
OK,58,54,853,58,2014-10-02T09:00:00,8,28232249,190691
OK,61,51,853,61,2014-10-02T09:10:00,0,28232697,190691
OK,56,56,853,56,2014-10-02T09:15:00,6,28233146,190691
OK,52,60,853,52,2014-10-02T09:20:00,3,28233570,190691
OK,52,60,853,52,2014-10-02T09:25:00,16,28234019,190691
OK,47,67,853,47,2014-10-02T09:30:00,7,28234353,190691
OK,56,56,853,56,2014-10-02T09:35:00,6,28234801,190691
OK,55,57,853,55,2014-10-02T09:40:00,2,28235228,190691
OK,51,62,853,51,2014-10-02T09:45:00,13,28235677,190691
OK,49,64,853,49,2014-10-02T09:50:00,2,28236121,190691
OK,52,60,853,52,2014-10-02T09:55:00,12,28236567,190691
OK,52,60,853,52,2014-10-02T10:00:00,5,28236970,190691
OK,47,67,853,47,2014-10-02T10:05:00,0,28237418,190691
OK,51,62,853,51,2014-10-02T10:10:00,18,28237866,190691
OK,51,62,853,51,2014-10-02T10:15:00,18,28238314,190691
OK,54,58,853,54,2014-10-02T10:20:00,15,28238754,190691
OK,51,62,853,51,2014-10-02T10:25:00,5,28239203,190691
OK,55,57,853,55,2014-10-02T10:30:00,0,28239634,190691
OK,54,58,853,54,2014-10-02T10:35:00,10,28240082,190691
OK,48,66,853,48,2014-10-02T10:40:00,11,28240527,190691
OK,54,58,853,54,2014-10-02T10:45:00,10,28240975,190691
OK,113,28,853,113,2014-10-02T10:50:00,3,28241408,190691
OK,51,62,853,51,2014-10-02T10:55:00,21,28241855,190691
OK,53,59,853,53,2014-10-02T11:00:00,6,28242252,190691
OK,65,48,853,65,2014-10-02T11:05:00,0,28242700,190691
OK,44,72,853,44,2014-10-02T11:15:00,10,28243149,190691
OK,48,66,853,48,2014-10-02T11:20:00,13,28243912,190691
OK,50,63,853,50,2014-10-02T11:25:00,7,28244342,190691
OK,52,60,853,52,2014-10-02T11:30:00,0,28244790,190691
OK,50,63,853,50,2014-10-02T11:35:00,7,28245239,190691
OK,49,64,853,49,2014-10-02T11:40:00,2,28245646,190691
OK,49,64,853,49,2014-10-02T11:45:00,0,28246094,190691
OK,51,62,853,51,2014-10-02T11:50:00,15,28246531,190691
OK,50,63,853,50,2014-10-02T11:55:00,8,28246980,190691
OK,47,67,853,47,2014-10-02T12:00:00,9,28247426,190691
OK,49,64,853,49,2014-10-02T12:05:00,6,28247857,190691
OK,47,67,853,47,2014-10-02T12:10:00,0,28248305,190691
OK,61,51,853,61,2014-10-02T12:15:00,15,28248753,190691
OK,77,41,853,77,2014-10-02T12:20:00,3,28249180,190691
OK,50,63,853,50,2014-10-02T12:25:00,6,28249624,190691
OK,76,41,853,76,2014-10-02T12:30:00,0,28250043,190691
OK,62,51,853,62,2014-10-02T12:35:00,8,28250441,190691
OK,53,59,853,53,2014-10-02T12:45:00,15,28251221,190691
OK,60,52,853,60,2014-10-02T13:20:00,14,28251766,190691
OK,54,58,853,54,2014-10-02T13:30:00,15,28252350,190691
OK,62,51,853,62,2014-10-02T13:35:00,4,28252792,190691
OK,43,73,853,43,2014-10-02T13:40:00,0,28253209,190691
OK,72,44,853,72,2014-10-02T13:45:00,21,28253658,190691
OK,72,44,853,72,2014-10-02T13:50:00,15,28254064,190691
OK,72,44,853,72,2014-10-02T13:55:00,17,28254384,190691
OK,76,41,853,76,2014-10-02T14:10:00,10,28254961,190691
OK,77,41,853,77,2014-10-02T14:15:00,15,28255410,190691
OK,74,42,853,74,2014-10-02T14:20:00,4,28255838,190691
OK,70,45,853,70,2014-10-02T14:25:00,0,28256287,190691
OK,75,42,853,75,2014-10-02T14:30:00,15,28256715,190691
OK,77,41,853,77,2014-10-02T14:35:00,19,28257164,190691
OK,78,40,853,78,2014-10-02T14:40:00,8,28257605,190691
OK,69,45,853,69,2014-10-02T14:45:00,14,28258053,190691
OK,67,47,853,67,2014-10-02T14:50:00,13,28258486,190691
OK,71,44,853,71,2014-10-02T14:55:00,11,28258932,190691
OK,70,45,853,70,2014-10-02T15:00:00,12,28259381,190691
OK,80,39,853,80,2014-10-02T15:05:00,5,28259828,190691
OK,77,41,853,77,2014-10-02T15:10:00,15,28260261,190691
OK,68,46,853,68,2014-10-02T15:15:00,14,28260710,190691
OK,73,43,853,73,2014-10-02T15:20:00,5,28261150,190691
OK,75,42,853,75,2014-10-02T15:25:00,9,28261532,190691
OK,74,42,853,74,2014-10-02T15:30:00,4,28261962,190691
OK,81,39,853,81,2014-10-02T15:35:00,7,28262409,190691
OK,75,42,853,75,2014-10-02T15:40:00,1,28262855,190691
OK,76,41,853,76,2014-10-02T15:45:00,12,28263293,190691
OK,73,43,853,73,2014-10-02T15:50:00,4,28263734,190691
OK,61,51,853,61,2014-10-02T15:55:00,0,28264136,190691
OK,61,51,853,61,2014-10-02T16:00:00,0,28264585,190691
OK,63,50,853,63,2014-10-02T16:05:00,9,28265023,190691